Погода в Саскылахе

Погода в Саскылахе : погода сейчас, прогноз погоды и архив. Всё, что Вы хотите узнать о погоде в Саскылахе!

Хотите узнать прогноз погоды в Саскылахе? Тогда Вам сюда: Погода в Саскылахе

Поиск расширенной информации на нашем сайте:

Другие новости

Новости СМИ2

Главная страница сайта

Новости сайта

03.07.2017

Напоминаем, что на нашем специализированном сайте Метеоцентр.Азия вы можете получить высокодетализированные автоматические прогнозы погоды по пунктам России, СНГ и мира в авиационном формате (включающие направление и скорость ветра, видимость, явления погоды, количество и форму облачности, нижнюю и верхнюю границу облачности).


Погода в Саскылахе - сегодня

Время (UTC), дата Ветер
(°,м/с) 
Видим.   Явления Облачность Т
(°С)
Тd
(°С)
f(%) Тe
(°С)
Pmin
(гПа)
dP
(гПа)
Po
(мм)
O2
(г/м3)
Тmin Tmax R s Состояние
почвы
21 21.05.18 тихо ()   20000 м    10/0 средняя 
[Ac As]
-0.1 -3 81 -0  1002.9  -1.6  750  303           
00 22.05.18 190 (Ю) 20000 м    10/0 средняя 
[Ac und]
+2.8 -1.1 75 1001.9  -1.1  750  299  -0.2      28  неравномерный
мокрый или
старый снег
100% 
03 22.05.18 190 (Ю) 20000 м    10/0 средняя 
[Ac und]
+3.3 +0.4 81 +1  1002.2  0.4  750  298           
06 22.05.18 240 (ЮЗ) 20000 м    4/0 средняя 
[Ac lent]
+4.8 +0.6 74 +4  1002.4  0.2  750  297           
09 22.05.18 040 (СВ) 20000 м    6/0 средняя 
[Ac lent]
+5.2 -0.1 69 +6  1002.4  750  297           
15 22.05.18 230 (ЮЗ) 20000 м    6/4 1260 м средняя 
[Sc|Ac lent]
+2.5 -0.2 82 +3  1005.7  0.4  752  300           
18 22.05.18 тихо ()   20000 м    10/0 средняя 
[Ac und]
+1.6 -0.7 85 +2  1005.3  0.6  752  301           
21 22.05.18 010 (С) 20000 м    ясно 
+2.9 -1.3 74 +4  1005.8  0.5  753  300           
00 23.05.18 120 (ЮВ) 20000 м    ясно 
+3.3 -0.8 74 +4  1005.8  753  300  +1.5      25  неравномерный
мокрый или
старый снег
100% 
03 23.05.18 070 (В) 20000 м    4/0 верхняя 
[Ci fib]
+4.8 -0.9 67 +4  1006  0.2  753  298           
06 23.05.18 070 (В) 20000 м    10/0 средняя 
[Ac und]
+5.1 -0.8 66 +3  1005.4  -0.6  753  298           
09 23.05.18 050 (СВ) 20000 м    10/0 средняя 
[Ac und]
+4.3 -0.6 70 +5  1005.2  -0.2  752  298           
15 23.05.18 080 (В) 20000 м    10/0 средняя 
[Ac und]
+3.5 -1.2 71 +3  1004.5  -0.7  752  299           
18 23.05.18 060 (СВ) 20000 м    10/0 средняя 
[Ac und]
+3 -1.5 72 +4  1003.9  -0.6  751  300           
21 23.05.18 070 (В) 20000 м    10/0 средняя 
[Ac und]
+2.7 -0.9 77 +3  1003.4  -0.5  751  300           
00 24.05.18 120 (ЮВ) 20000 м    8/0 средняя 
[Ac cast]
+4.2 -1 69 +5  1003.3  -0.1  751  298  +2.6      20  мокрый или
старый снег
50-90% 
03 24.05.18 030 (СВ) 20000 м    6/0 средняя, верхняя 
[Ac cast|Cc]
+6.8 -0.5 60 +8  1002.9  -0.4  750  295           
06 24.05.18 080 (В) 20000 м    10/0 средняя 
[Ac und]
+7.4 -0.3 58 +8  1002.4  -0.4  750  294           
09 24.05.18 360 (С) 20000 м    10/0 средняя 
[Ac und]
+7.4 +0.3 61 +8  1001.5  -1  749  294           
15 24.05.18 170 (Ю) 20000 м  слаб. дождь  10/0 средняя 
[As op]
+4.9 +0.8 75 +6  1000.4  -0.1  749  296           
18 24.05.18 210 (ЮЗ) н/о    н/о 
+3.3 +1.3 87 +4  999.9  -0.1  748  298           
21 24.05.18 030 (СВ) 20000 м    10/0 средняя 
[Ac und]
+4.1 +1.6 84 +5  999.4  -0.1  748  297           
00 25.05.18 220 (ЮЗ) 20000 м    3/0 средняя 
[Ac und]
+6.6 +2.8 77 +6  998.8  -0.5  747  294  +3.2    0.3  10  мокрый или
старый снег
50-90% 
03 25.05.18 320 (СЗ) 20000 м    6/0 средняя 
[Ac trans]
+10.1 +2.9 61 +10  997.6  -1.2  747  290           
06 25.05.18 320 (СЗ) 20000 м  {дождь}  4/0 средняя 
[Ac cast]
+8.3 +3.2 70 +8  998.4  0.8  747  292           
Время (UTC), дата Ветер
(°,м/с) 
Видим.   Явления Облачность Т
(°С)
Тd
(°С)
f(%) Тe
(°С)
Pmin
(гПа)
dP
(гПа)
Po
(мм)
O2
(г/м3)
Тmin Tmax R s Состояние
почвы

Для получения пояснительной информации подведите курсор к названию столбца.

ПОГОДА в Саскылахе - архив

Всё, что Вы хотите узнать о погоде в Саскылахе - удобно и подробно!

Выберите нужную дату (начиная с 1 января 2015* года) и нажмите кнопку "Найти".
Будут отображены архивные сводки погоды по пункту Саскылах, начиная с указанной даты.


Отображать данные в формате CSV (для использования в таблицах Excel)


Внимание! Наш архив погоды предназначен исключительно для личного некоммерческого использования в познавательных целях. Если Вам необходимы официальные справки о состоянии погоды (для производственных, юридических, коммерческих и т.п. целей), обращайтесь в органы Росгидромета.

*Примечание: данная дата относится к архиву по метеостанциям СССР (Россия, СНГ, Балтия).
Архив по метеостанциям Зарубежной Европы и Азии (кроме Китая) хранится 10 дней, по другим регионам земного шара (Китай, Африка, Америка, Австралия, Океания) - 1 день.

Саскылах - район местоположения метеостанции


Название, широта, долгота, высота метеостанции:
Саскылах 72°ш. 114.1°д. 18 м над ур. моря [Российская Федерация]

Дополнительная информация

В oтличие oт бoльшинства пoгoдных сайтoв мы публикуем пoдрoбную метеoинфoрмацию в детальнoм прoфессиoнальнoм фoрмате.

Характеристики температуры и влажнoсти вoздуха измеряются на высoте 2 м в тени вдали oт зданий и деревьев.
Скoрoсть ветра измеряется на высoте 10 м (на урoвне рoста челoвека скoрoсть ветра ниже в 1.5-2 раза). Если метеoстанция нахoдится в гoрoде или в лесу, тo скoрoсть ветра занижена на 2-4 м/с пo сравнению с oткрытым местoм. Скoрoсть ветра над акватoриями крупных рек и oзёр, а также на вершинах хoлмoв на 2-5 м/с выше, чем в oбычных услoвиях.
Атмoсфернoе давление в разных тoчках местнoсти мoжет значительнo oтличаться oт давления на метеoстанции, в зависимoсти oт услoвий рельефа (при пoдъёме на 10 м давление пoнижается примернo на 1 мм рт.ст.).